Content
SEND FEEDBACK

Daily
Averages
Monthly
Summary
United States of America

OAKS, TEXAS


Home > North America > United States > Texas
Elevation: 76 meters     Latitude: 28 35N     Longitude: 098 08W

WEATHER
 
SELECT A DAY
Number of Records: 172,485;   Date Range: 5/14/07 - 7/27/14
 
SHARE

PRINT THIS DATA

[ ← Previous Day ]
WEATHER ALMANAC - 13 FEBRUARY, 2013
[ Next Day → ]
[ °F ]   °C
Weather ElementAverageHighLow
Temperature12.6 °C16 °C (12:35 am)8 °C (7:55 am)
Dewpoint3.4 °C11 °C (12:35 am)2 °C (7:35 am)
Humidity54.8 %72 % (12:35 am)39 % (3:35 pm)
Barometer1019 hPa1022 hPa (10:35 am)1016.3 hPa (12:55 am)
Wind Speed11.4 km/h24.1 km/h (7:35 am)
Wind Gust37 km/h (2:15 am)
Weather ElementAverage
Visibility16.1 km
Wind DirectionSE (134.2 °)

Weather ElementTotal
Precipitation---
Heating Degree Days6.3 (Base 18.3)
Growing Degree Days2 (Base 10)
Averaged from 69 records on 13 February, 2013
WEATHER CONDITIONS BREAKOUT
WIND DIRECTION BREAKOUT
WEATHER BY HOUR - 13 FEBRUARY, 2013
[ °F ]   °C
Local TimeTemperatureDewpointHumidityBarometerVisibilityWind DirectionWind SpeedGust SpeedPrecipitationEventsConditions
12:35 AM16 °C11 °C72 %1016.6 hPa16.1 kmNNW (340°)5.6 km/hClear
12:55 AM16 °C6 °C52 %1016.3 hPa16.1 kmNorth (10°)9.3 km/hClear
1:15 AM16 °C4 °C45 %1016.3 hPa16.1 kmNorth (10°)18.5 km/hScattered Clouds
1:35 AM16 °C3 °C42 %1016.6 hPa16.1 kmNorth (360°)18.5 km/hScattered Clouds
1:55 AM16 °C3 °C42 %1016.3 hPa16.1 kmNorth (10°)18.5 km/hClear
2:15 AM15 °C7 °C59 %1016.3 hPa16.1 kmNNE (30°)22.2 km/h37 km/hClear
2:35 AM15 °C8 °C63 %1016.6 hPa16.1 kmNNE (30°)20.4 km/hClear
2:55 AM15 °C9 °C67 %1017.3 hPa16.1 kmNNE (20°)14.8 km/hClear
3:15 AM15 °C9 °C67 %1017.9 hPa16.1 kmNorth (10°)14.8 km/hClear
3:35 AM13 °C5 °C58 %1017.9 hPa16.1 kmNorth (360°)20.4 km/h27.8 km/hScattered Clouds
3:55 AM12 °C4 °C58 %1018.6 hPa16.1 kmNorth (350°)16.7 km/h29.6 km/hClear
4:15 AM12 °C4 °C58 %1019 hPa16.1 kmNNW (340°)14.8 km/hMostly Cloudy
4:35 AM11 °C4 °C62 %1019 hPa16.1 kmNorth (360°)14.8 km/hRainLight Rain
4:55 AM10 °C4 °C66 %1018.6 hPa16.1 kmNorth (360°)14.8 km/hMostly Cloudy
5:15 AM10 °C3 °C62 %1018.6 hPa16.1 kmNorth (360°)20.4 km/h31.5 km/hMostly Cloudy
5:35 AM10 °C3 °C62 %1019 hPa16.1 kmNorth (350°)22.2 km/h29.6 km/hScattered Clouds
5:55 AM10 °C3 °C62 %1018.3 hPa16.1 kmNorth (10°)20.4 km/hMostly Cloudy
6:15 AM10 °C3 °C62 %1018.6 hPa16.1 kmNorth (360°)13 km/hMostly Cloudy
6:35 AM9 °C3 °C66 %1019 hPa16.1 kmNorth (10°)11.1 km/hRainLight Rain
6:55 AM9 °C3 °C66 %1019.3 hPa16.1 kmNorth (10°)11.1 km/hScattered Clouds
7:35 AM9 °C2 °C62 %1020.3 hPa16.1 kmNNE (20°)24.1 km/h29.6 km/hMostly Cloudy
7:55 AM8 °C2 °C66 %1020.3 hPa16.1 kmNorth (10°)14.8 km/hScattered Clouds
8:15 AM8 °C2 °C66 %1020.7 hPa16.1 kmNorth (10°)13 km/hScattered Clouds
8:35 AM9 °C2 °C62 %1020.7 hPa16.1 kmNorth (10°)20.4 km/hClear
8:55 AM9 °C2 °C62 %1021.3 hPa16.1 kmNorth (10°)24.1 km/hClear
9:15 AM10 °C2 °C58 %1021.7 hPa16.1 kmNorth (10°)20.4 km/hClear
9:35 AM11 °C3 °C58 %1021.7 hPa16.1 kmNNE (20°)14.8 km/hScattered Clouds
10:15 AM11 °C3 °C58 %1021.7 hPa16.1 kmNorth (350°)13 km/hClear
10:35 AM11 °C3 °C58 %1022 hPa16.1 kmNorth (360°)13 km/h25.9 km/hClear
10:55 AM11 °C3 °C58 %1022 hPa16.1 kmNorth (350°)18.5 km/hClear
11:15 AM12 °C3 °C54 %1021.7 hPa16.1 kmNNE (20°)13 km/hClear
11:35 AM12 °C2 °C51 %1021.7 hPa16.1 kmNNE (20°)11.1 km/hClear
11:55 AM13 °C2 °C47 %1021.3 hPa16.1 kmNNE (30°)16.7 km/hClear
12:15 PM14 °C3 °C48 %1021 hPa16.1 kmNNE (30°)14.8 km/hClear
12:35 PM14 °C3 °C48 %1020.7 hPa16.1 kmNorth (360°)14.8 km/hClear
12:55 PM15 °C3 °C45 %1020.3 hPa16.1 kmNorth (350°)5.6 km/hClear
1:15 PM15 °C3 °C45 %1020 hPa16.1 kmNorth (10°)9.3 km/hClear
1:35 PM15 °C3 °C45 %1019.6 hPa16.1 kmNorth (350°)14.8 km/hClear
1:55 PM15 °C3 °C45 %1019.3 hPa16.1 kmNorth (360°)14.8 km/hClear
2:15 PM15 °C3 °C45 %1018.6 hPa16.1 kmNNW (330°)11.1 km/hClear
2:35 PM16 °C3 °C42 %1018.6 hPa16.1 kmNNW (330°)11.1 km/hClear
2:55 PM16 °C3 °C42 %1018.3 hPa16.1 kmNE (40°)5.6 km/hClear
3:15 PM16 °C3 °C42 %1017.9 hPa16.1 kmNorth (360°)9.3 km/hClear
3:35 PM16 °C2 °C39 %1017.6 hPa16.1 kmCalmClear
3:55 PM16 °C3 °C42 %1017.6 hPa16.1 kmNNE (20°)9.3 km/hClear
4:15 PM16 °C2 °C39 %1017.3 hPa16.1 kmNorth (350°)5.6 km/hClear
4:35 PM16 °C2 °C39 %1017.3 hPa16.1 kmNorth (10°)7.4 km/hClear
4:55 PM16 °C2 °C39 %1017.3 hPa16.1 kmNNE (30°)13 km/hClear
5:15 PM16 °C2 °C39 %1017.3 hPa16.1 kmNorth (10°)13 km/hClear
5:35 PM16 °C2 °C39 %1017.3 hPa16.1 kmNNE (20°)11.1 km/hClear
5:55 PM15 °C2 °C42 %1017.3 hPa16.1 kmNorth (10°)9.3 km/hClear
6:15 PM15 °C3 °C45 %1017.3 hPa16.1 kmNorth (360°)7.4 km/hClear
6:35 PM14 °C3 °C48 %1017.3 hPa16.1 kmNorth (360°)5.6 km/hClear
6:55 PM13 °C3 °C51 %1017.3 hPa16.1 kmENE (60°)5.6 km/hClear
7:15 PM13 °C3 °C51 %1017.6 hPa16.1 kmNNE (30°)5.6 km/hClear
7:35 PM13 °C3 °C51 %1017.6 hPa16.1 kmNNE (30°)5.6 km/hClear
7:55 PM12 °C3 °C54 %1017.6 hPa16.1 kmCalmClear
8:15 PM12 °C3 °C54 %1017.9 hPa16.1 kmCalmClear
8:35 PM12 °C3 °C54 %1017.9 hPa16.1 kmCalmClear
8:55 PM10 °C5 °C71 %1018.3 hPa16.1 kmCalmClear
9:15 PM10 °C5 °C71 %1018.6 hPa16.1 kmCalmClear
9:35 PM10 °C4 °C66 %1018.6 hPa16.1 kmEast (80°)7.4 km/hClear
9:55 PM10 °C3 °C62 %1019 hPa16.1 kmEast (90°)5.6 km/hClear
10:15 PM10 °C3 °C62 %1019 hPa16.1 kmEast (90°)5.6 km/hClear
10:35 PM10 °C3 °C62 %1019.3 hPa16.1 kmCalmClear
10:55 PM10 °C3 °C62 %1019.3 hPa16.1 kmEast (90°)5.6 km/hClear
11:15 PM9 °C3 °C66 %1019.6 hPa16.1 kmEast (90°)7.4 km/hClear
11:35 PM9 °C3 °C66 %1019.6 hPa16.1 kmEast (100°)7.4 km/hClear
11:55 PM9 °C3 °C66 %1019.6 hPa16.1 kmCalmClear
Hourly data recorded from KBEA, located 0 kilometers away from Oaks, Texas







STORIES FROM OUR PARTNERS